Regional Weather Roundup
Issued by NWS Raleigh/Durham, NC

Home | Current Version | Previous Version | Text Only | Print | Product List | Glossary On
Versions: 1 2 3 4 5 6 7 8 9 10 11 12 13 14 15 16 17 18 19 20 21 22 23 24 25 26 27 28 29 30 31 32 33 34 35 36 37 38 39 40 41 42 43 44 45 46 47 48 49 50
000
ASUS42 KRAH 231210
RWRRAH
NORTH CAROLINA WEATHER ROUNDUP
NATIONAL WEATHER SERVICE RALEIGH NC
800 AM EDT SUN APR 23 2017

NOTE: "FAIR" INDICATES FEW OR NO CLOUDS BELOW 12,000 FEET WITH NO
SIGNIFICANT WEATHER AND/OR OBSTRUCTIONS TO VISIBILITY.

NCZ001-053-055-056-065-067-231300-
WESTERN NORTH CAROLINA

CITY           SKY/WX    TMP DP  RH WIND       PRES   REMARKS
ASHEVILLE      NOT AVBL
JEFFERSON      DRZL/FOG  45  45 100 E6        29.99R VSB 3/4
MORGANTON      DRIZZLE   51  51  99 N7        30.05R
HICKORY        NOT AVBL
RUTHERFORDTON  LGT RAIN  53  53 100 NE3       29.96R
MOUNT AIRY     CLOUDY    50  47  89 NE6G17    30.05R
BOONE          DRIZZLE   45  45 100 E6        30.00R
$$

NCZ021-022-025-041-071-084-088-231300-
CENTRAL NORTH CAROLINA

CITY           SKY/WX    TMP DP  RH WIND       PRES   REMARKS
CHARLOTTE      LGT RAIN  55  51  86 NE13      29.96R
GREENSBORO     LGT RAIN  49  48  97 NE15      30.01R
WINSTON-SALEM  LGT RAIN  49  46  90 NE8       30.02R
RALEIGH-DURHAM CLOUDY    54  52  93 NE9       30.00F
FORT BRAGG     CLOUDY    57  54  88 E13G20    29.97R
FAYETTEVILLE   CLOUDY    59  54  83 NE8G17    29.97R
BURLINGTON     CLOUDY    51  49  92 N9        30.01R
LAURINBURG     CLOUDY    59  57  93 E9        29.96R
$$

NCZ011-015-027-028-043-044-047-080-103-231300-
NORTHEASTERN NORTH CAROLINA

CITY           SKY/WX    TMP DP  RH WIND       PRES   REMARKS
ROCKY MT-WILSO LGT RAIN  54  54 100 NE10      30.02R FOG
GREENVILLE     CLOUDY    55  55 100 NE6       30.04R
WASHINGTON     CLOUDY    55  53  94 NE6       30.03R
ELIZABETH CITY NOT AVBL
MANTEO         LGT RAIN  54  52  94 NE14G21   30.03R
CAPE HATTERAS  CLOUDY    58  55  90 NE10G22   30.00R FOG
$$

NCZ078-087-090-091-093-098-101-231300-
SOUTHEASTERN NORTH CAROLINA

CITY           SKY/WX    TMP DP  RH WIND       PRES   REMARKS
LUMBERTON      CLOUDY    58  55  90 NE10G17   29.95R
GOLDSBORO      CLOUDY    56  56 100 NE14      29.99R
KINSTON        LGT RAIN  57  54  88 NE10G18   30.01R
KENANSVILLE    CLOUDY    55  54  94 E7        29.98S
NEW BERN       CLOUDY    57  56  96 NE15G22   30.00R FOG
CHERRY POINT   CLOUDY    60  56  86 NE16      29.99R
BEAUFORT       LGT RAIN  61  60  97 NE12G21   29.99R
JACKSONVILLE   CLOUDY    58  57  97 NE12      29.98R
WILMINGTON     LGT RAIN  59  58  96 NE14      29.95S
$$




USA.gov is the U.S. government's official web portal to all federal, state and local government web resources and services.